Tracking 28091 objects as of 30-Sep-2023
HD Live streaming from Space Station
objects crossing your sky now

STARLINK-5030

Track STARLINK-5030 now!
10-day predictions
STARLINK-5030 is classified as:


NORAD ID: 55418
Int'l Code: 2023-014AD
Perigee: 577.4 km
Apogee: 581.0 km
Inclination: 70.0 °
Period: 96.1 minutes
Semi major axis: 6950 km
RCS: Unknown
Launch date: January 31, 2023
Source: United States (US)
Launch site: AIR FORCE WESTERN TEST RANGE (AFWTR)
Your satellite tracking list
Your tracking list is empty




NASA's NSSDC Master Catalog

Two Line Element Set (TLE):
1 55418U 23014AD  23272.12028960  .00002438  00000-0  21203-3 0  9995
2 55418  70.0013 174.9557 0002606 255.0954 104.9917 14.98332667 37862
Source of the keplerian elements: AFSPC